Weather History for Boston, MA

Change the Weather History Date:

Monday, October 29, 2012

  Actual Average Record
Temperature  
Mean Temperature 57 °F 50 °F  
Max Temperature 61 °F 57 °F 79 °F (1918)
Min Temperature 53 °F 43 °F 26 °F (1876)
Degree Days  
Heating Degree Days 8 15  
Month to date heating degree days 244 319  
Since 1 July heating degree days 316 416  
Cooling Degree Days 0 0  
Month to date cooling degree days 6 6  
Year to date cooling degree days 905 746  
Growing Degree Days 6 (Base 50)    
Moisture  
Dew Point 55 °F    
Average Humidity 95    
Maximum Humidity 100    
Minimum Humidity 90    
Precipitation  
Precipitation 1.06 in 0.12 in 1.49 in (2003)
Month to date precipitation 2.11 3.69  
Year to date precipitation 29.28 35.75  
Snow  
Snow 0.00 in 0.00 in 1.10 in (2005)
Month to date snowfall 0.0 0.0  
Since 1 July snowfall 0.0 0.0  
Since 1 September snowfall 0.0 0.0  
Snow Depth 0.00 in    
Sea Level Pressure  
Sea Level Pressure 29.47 in    
Wind  
Wind Speed 31 mph (ENE)    
Max Wind Speed 46 mph    
Max Gust Speed 62 mph    
Visibility 3 miles    
Events Rain    
T = Trace of Precipitation, MM = Missing Value Source: NWS Daily Summary

Daily Weather History Graph

Daily Weather History Graph

Search for Another Location

Airport:

Trip Planner

Search our weather history database for the weather conditions in past years. The results will help you decide how hot, cold, wet, or windy it might be!

Date:

Astronomy

Oct. 29, 2012 Rise Set
Actual Time 7:14 AM EDT 5:40 PM EDT
Civil Twilight 6:45 AM EDT 6:09 PM EDT
Nautical Twilight 6:12 AM EDT 6:42 PM EDT
Astronomical Twilight 5:39 AM EDT 7:15 PM EDT
Moon 5:29 PM EDT (10/29) 7:02 AM EDT (10/29)
Length of Visible Light 11h 24m
Length of Day
10h 26m
Full, 100% of the Moon is Illuminated
Oct 29
Full
Oct 29
Full
Nov 6
Last Quarter
Nov 13
New
Nov 20
First Quarter

Hourly Weather History & Observations

Time (EDT) Temp. Dew Point Humidity Pressure Visibility Wind Dir Wind Speed Gust Speed Precip Events Conditions
12:03 AM 53.6 °F 51.8 °F 94% 29.78 in 8.0 mi NE 18.4 mph 31.1 mph N/A   Overcast
12:10 AM 53.6 °F 51.8 °F 94% 29.77 in 6.0 mi NE 23.0 mph 27.6 mph 0.00 in Rain Light Rain
12:35 AM 53.6 °F 51.8 °F 94% 29.76 in 2.5 mi NE 20.7 mph 32.2 mph 0.01 in Rain Light Rain
12:39 AM 53.6 °F 51.8 °F 94% 29.76 in 3.0 mi NE 20.7 mph 32.2 mph 0.01 in Rain Light Rain
12:50 AM 53.6 °F 51.8 °F 94% 29.76 in 2.0 mi NE 25.3 mph 34.5 mph 0.02 in Rain Light Rain
12:54 AM 53.1 °F 52.0 °F 96% 29.76 in 2.5 mi NE 20.7 mph 34.5 mph 0.02 in Rain Light Rain
1:29 AM 53.6 °F 51.8 °F 94% 29.75 in 4.0 mi NE 24.2 mph 35.7 mph 0.01 in Rain Light Rain
1:54 AM 54.0 °F 52.0 °F 93% 29.74 in 6.0 mi NE 20.7 mph 31.1 mph 0.01 in Rain Light Rain
2:54 AM 54.0 °F 52.0 °F 93% 29.71 in 5.0 mi NE 24.2 mph 31.1 mph 0.00 in Rain Light Rain
3:11 AM 53.6 °F 51.8 °F 94% 29.70 in 8.0 mi NE 24.2 mph 34.5 mph 0.00 in   Overcast
3:36 AM 53.6 °F 51.8 °F 94% 29.69 in 3.0 mi NE 25.3 mph 34.5 mph 0.00 in Rain Light Rain
3:54 AM 54.0 °F 52.0 °F 93% 29.68 in 4.0 mi ENE 23.0 mph 34.5 mph 0.01 in Rain Light Rain
4:54 AM 54.0 °F 52.0 °F 93% 29.66 in 10.0 mi NE 25.3 mph 33.4 mph 0.00 in   Overcast
5:04 AM 53.6 °F 51.8 °F 94% 29.65 in 7.0 mi NE 24.2 mph 34.5 mph N/A   Overcast
5:27 AM 53.6 °F 51.8 °F 94% 29.64 in 2.5 mi NE 27.6 mph 40.3 mph 0.00 in Rain Light Rain
5:48 AM 53.6 °F 51.8 °F 94% 29.62 in 3.0 mi NE 25.3 mph 41.4 mph 0.01 in Rain Light Rain
5:54 AM 54.0 °F 53.1 °F 97% 29.62 in 2.5 mi NE 29.9 mph 36.8 mph 0.01 in Rain Light Rain
6:54 AM 55.0 °F 53.1 °F 93% 29.60 in 3.0 mi NE 28.8 mph 39.1 mph 0.01 in Rain Light Rain
7:02 AM 55.4 °F 53.6 °F 94% 29.61 in 3.0 mi NE 28.8 mph 41.4 mph N/A Rain Light Rain
7:15 AM 55.4 °F 53.6 °F 94% 29.60 in 2.0 mi NE 26.5 mph 39.1 mph 0.00 in Rain Light Rain
7:54 AM 55.0 °F 53.1 °F 93% 29.60 in 1.2 mi NE 31.1 mph 39.1 mph 0.02 in Rain Light Rain
8:15 AM 55.4 °F 53.6 °F 94% 29.59 in 2.0 mi NE 31.1 mph 42.6 mph 0.01 in Rain Light Rain
8:30 AM 55.4 °F 53.6 °F 94% 29.58 in 3.0 mi NE 27.6 mph 42.6 mph 0.01 in Rain Light Rain
8:43 AM 55.4 °F 53.6 °F 94% 29.59 in 2.0 mi NE 29.9 mph 44.9 mph 0.01 in Rain Light Rain
8:54 AM 55.0 °F 53.1 °F 93% 29.57 in 2.5 mi NE 32.2 mph 46.0 mph 0.01 in Rain Light Rain
9:54 AM 55.0 °F 54.0 °F 96% 29.54 in 1.8 mi NE 32.2 mph 48.3 mph 0.00 in Rain Light Rain
10:54 AM 55.9 °F 54.0 °F 93% 29.50 in 1.2 mi NE 32.2 mph 46.0 mph 0.01 in Rain Light Rain
11:44 AM 55.4 °F 55.4 °F 100% 29.46 in 2.0 mi NE 33.4 mph 47.2 mph 0.02 in Rain Light Rain
11:54 AM 57.0 °F 55.0 °F 93% 29.45 in 3.0 mi NE 33.4 mph 44.9 mph 0.02 in Rain Light Rain
12:03 PM 57.2 °F 55.4 °F 94% 29.45 in 2.5 mi NE 33.4 mph 51.8 mph 0.00 in Rain Light Rain
12:54 PM 57.0 °F 55.0 °F 93% 29.39 in 2.5 mi NE 38.0 mph 54.1 mph 0.00 in Rain Light Rain
1:22 PM 57.2 °F 55.4 °F 94% 29.37 in 3.0 mi NE 38.0 mph 54.1 mph 0.00 in   Overcast
1:54 PM 57.9 °F 55.0 °F 90% 29.33 in 3.0 mi NE 40.3 mph 52.9 mph 0.00 in Rain Light Rain
2:27 PM 57.2 °F 55.4 °F 94% 29.29 in 1.8 mi NE 43.7 mph 56.4 mph 0.00 in Rain Rain
2:54 PM 57.0 °F 55.9 °F 96% 29.27 in 1.0 mi ENE 40.3 mph 56.4 mph 0.18 in Rain Rain
3:47 PM 57.2 °F 57.2 °F 100% 29.25 in 2.5 mi ENE 42.6 mph 59.8 mph 0.07 in Rain Light Rain
3:54 PM 57.9 °F 57.0 °F 97% 29.25 in 1.8 mi ENE 44.9 mph 59.8 mph 0.07 in Rain Light Rain
4:32 PM 59.0 °F 57.2 °F 94% 29.23 in 2.0 mi ENE 43.7 mph 57.5 mph 0.02 in Rain Light Rain
4:54 PM 59.0 °F 57.9 °F 96% 29.24 in 1.2 mi East 38.0 mph 48.3 mph 0.03 in Rain Light Rain
5:21 PM 60.8 °F 57.2 °F 88% 29.24 in 3.0 mi East 40.3 mph 51.8 mph 0.02 in Rain Light Rain
5:54 PM 60.1 °F 57.9 °F 93% 29.27 in 3.0 mi East 39.1 mph 59.8 mph 0.02 in Rain Light Rain
6:54 PM 60.1 °F 57.9 °F 93% 29.26 in 3.0 mi East 36.8 mph 49.5 mph 0.02 in   Overcast
7:31 PM 60.8 °F 57.2 °F 88% 29.23 in 2.0 mi East 35.7 mph 47.2 mph 0.07 in Rain Light Rain
7:34 PM 60.8 °F 57.2 °F 88% 29.23 in 3.0 mi East 36.8 mph 47.2 mph 0.07 in Rain Light Rain
7:54 PM 60.1 °F 57.9 °F 93% 29.24 in 3.0 mi East 38.0 mph 54.1 mph 0.10 in   Overcast
8:35 PM 60.8 °F 57.2 °F 88% 29.22 in 1.8 mi East 36.8 mph 48.3 mph 0.03 in Rain Heavy Rain
8:54 PM 59.0 °F 57.9 °F 96% 29.22 in 2.5 mi East 38.0 mph 50.6 mph 0.13 in Rain Light Rain
9:07 PM 59.0 °F 57.2 °F 94% 29.28 in 1.2 mi SSE 20.7 mph 42.6 mph 0.06 in Rain Heavy Rain
9:23 PM 60.8 °F 57.2 °F 88% 29.26 in 3.0 mi ESE 21.9 mph 31.1 mph 0.36 in Rain Rain
9:54 PM 60.1 °F 57.9 °F 93% 29.28 in 3.0 mi ESE 28.8 mph 36.8 mph 0.38 in   Mostly Cloudy
9:56 PM 60.8 °F 57.2 °F 88% 29.28 in 3.0 mi ESE 28.8 mph 35.7 mph N/A   Overcast
10:54 PM 59.0 °F 57.9 °F 96% 29.31 in 3.0 mi ESE 19.6 mph 31.1 mph 0.02 in   Overcast
11:22 PM 59.0 °F 57.2 °F 94% 29.32 in 2.5 mi SE 17.3 mph - 0.00 in Rain Light Rain
11:54 PM 57.9 °F 57.0 °F 97% 29.32 in 2.5 mi ESE 17.3 mph - 0.01 in   Overcast